This is the latest recevied weather packets stored in our database for station/object WA1TYB-13. If no packets are shown the sender has not sent any weather packets the latest 10 day(s).
| Time | Temp. | Humidity | Pressure | Rain* | Wind** | Luminosity | Snow |
|---|---|---|---|---|---|---|---|
| 1788575721 | 17.78° C | 47% | 1016.2 hPa | 0 mm | - | 0 W/m² | - |
| 1788575415 | 17.22° C | 46% | 1016.3 hPa | 0 mm | - | 0 W/m² | - |
| 1788575109 | 17.22° C | 47% | 1016.2 hPa | 0 mm | - | 0 W/m² | - |
| 1788574805 | 17.22° C | 48% | 1016 hPa | 0 mm | - | 0 W/m² | - |
| 1788574504 | 17.22° C | 48% | 1016.2 hPa | 0 mm | - | 0 W/m² | - |
| 1788574199 | 17.22° C | 49% | 1016 hPa | 0 mm | - | 0 W/m² | - |
| 1788573894 | 17.78° C | 47% | 1015.8 hPa | 0 mm | - | 0 W/m² | - |
| 1788573594 | 18.33° C | 48% | 1015.7 hPa | 0 mm | - | 1 W/m² | - |
| 1788573292 | 18.89° C | 45% | 1015.6 hPa | 0 mm | - | 3 W/m² | - |
| 1788572991 | 19.44° C | 45% | 1015.4 hPa | 0 mm | - | 6 W/m² | - |
| 1788572687 | 19.44° C | 43% | 1015.3 hPa | 0 mm | - | 9 W/m² | - |
| 1788572382 | 20° C | 42% | 1015.2 hPa | 0 mm | - | 5 W/m² | - |
| 1788572079 | 20° C | 39% | 1015.2 hPa | 0 mm | - | 3 W/m² | - |
| 1788571773 | 20.56° C | 38% | 1014.5 hPa | 0 mm | - | 6 W/m² | - |
| 1788571468 | 21.11° C | 36% | 1014.8 hPa | 0 mm | - | 9 W/m² | - |
| 1788571165 | 21.11° C | 34% | 1014.7 hPa | 0 mm | - | 7 W/m² | - |
| 1788570861 | 21.11° C | 35% | 1014.4 hPa | 0 mm | - | 6 W/m² | - |
| 1788570556 | 21.11° C | 35% | 1014.3 hPa | 0 mm | - | 8 W/m² | - |
| 1788570251 | 21.67° C | 34% | 1014.3 hPa | 0 mm | - | 15 W/m² | - |
| 1788569947 | 21.67° C | 35% | 1014 hPa | 0 mm | - | 22 W/m² | - |
| 1788569643 | 21.67° C | 33% | 1013.8 hPa | 0 mm | - | 21 W/m² | - |
| 1788569338 | 21.67° C | 32% | 1013.8 hPa | 0 mm | - | 24 W/m² | - |
| 1788569038 | 21.67° C | 33% | 1013.6 hPa | 0 mm | - | 33 W/m² | - |
| 1788568733 | 21.67° C | 32% | 1013.5 hPa | 0 mm | - | 50 W/m² | - |
| 1788568429 | 21.67° C | 34% | 1013.8 hPa | 0 mm | - | 47 W/m² | - |
* Rain latest hour (hover to see other rain measurements)
** Current wind speed in m/s (hover to see current wind gust speed)